SCP
0 0 0 0 0 0 0 0 0 0 0 0 0 0 0 0 0 0 0 0 0 0 0 0 0 0 0 0 0 0 0 0 0 0 0 0 0 0 0 0 0 0 0 0 0 0 0 0 0
0 0 0 0 0 0 0 0 0 0 0 0 0 0 0 0 0 0 0 0 0 0 0 0 0 0 0 0 0 0 0 0 0 0 0 0 0 0 0 0 0 0 0 0 0 0 0 0 0
0 0 0 0 0 0 0 0 0 0 0 0 0 0 0 0 0 0 0 0 0 0 0 0 0 0 0 0 0 0 0 0 0 0 0 0 0 0 0 0 0 0 0 0 0 0 0 0 0
0 0 0 0 0 0 0 0 0 0 0 0 0 0 0 0 0 0 0 0 0 0 0 0 0 0 0 0 0 0 0 0 0 0 0 0 0 0 0 0 0 0 0 0 0 0 0 0 0
0 0 0 0 0 0 0 0 0 0 0 0 0 0 0 0 0 0 0 0 0 0 0 0 0 0 0 0 0 0 0 0 0 0 0 0 0 0 0 0 0 0 0 0 0 0 0 0 0
0 0 0 0 0 0 -0 0 0 0 0 0 0 0 0 0 0 0 0 0 0 0 0 0 0 0 0 0 0 0 0 0 0 0 0 0 0 0 0 0 0 0 0 0 0 0 0 0 0
0 0 0 0 0 0 -0 -0 0 0 0 0 0 0 0 0 0 0 0 0 0 0 0 0 0 0 0 0 0 0 0 0 0 0 0 0 0 0 0 0 0 0 0 0 0 0 0 0 0
0 0 0 0 0 0 -0 -0 -0 0 0 0 0 0 0 0 0 0 0 0 0 0 0 0 0 0 0 0 0 0 0 0 0 0 0 0 0 0 0 0 0 0 0 0 0 0 0 0 0
0 0 0 0 0 0 -0 -0 0 0 0 0 0 0 0 0 0 0 0 0 0 0 0 0 0 0 0 0 0 0 0 0 0 0 0 0 0 0 0 0 0 0 0 0 0 0 0 0 0
0 0 0 0 0 -0 -0 -0 0 0 0 0 0 0 0 0 0 0 0 0 0 0 0 0 0 0 0 0 0 0 0 0 0 0 0 0 0 0 0 0 0 0 0 0 0 0 0 0 0
0 0 0 0 0 -0 -0 -0 0 0 0 0 0 0 0 0 0 0 0 0 0 0 0 0 0 0 0 0 0 0 0 0 0 0 0 0 0 0 0 0 0 0 0 0 0 0 0 0 0
0 0 0 0 0 0 0 0 0 0 0 0 0 0 0 0 0 0 0 0 0 0 0 0 0 0 0 0 0 0 0 0 0 0 0 0 0 0 0 0 0 0 0 0 0 0 0 0 0
0 0 0 0 0 0 0 0 0 0 0 0 0 0 0 0 0 0 0 0 0 0 0 0 0 0 0 0 0 0 0 0 0 0 0 0 0 0 0 0 0 0 0 0 0 0 0 0 0
0 0 0 0 0 0 0 0 0 0 0 0 0 0 0 0 0 0 0 0 0 0 0 0 0 0 0 0 0 0 0 0 0 0 0 0 0 0 0 0 0 0 0 0 0 0 0 0 0
0 0 0 0 0 0 0 0 0 0 0 0 0 0 0 0 0 0 0 0 0 0 0 0 0 0 0 0 0 0 0 0 0 0 0 0 0 0 0 0 0 0 0 0 0 0 0 0 0
0 0 0 0 0 0 0 0 0 0 0 0 0 0 0 0 0 0 0 0 0 0 0 0 0 0 0 0 0 0 0 0 0 0 0 0 0 0 0 0 0 0 0 0 0 0 0 0 0
0 0 0 0 0 0 0 0 0 0 0 0 0 0 0 0 0 0 0 0 0 0 0 0 0 0 0 0 0 0 0 0 0 0 0 0 0 0 0 0 0 0 0 0 0 0 0 0 0
0 0 0 0 0 0 0 0 0 0 0 0 0 0 0 0 0 0 0 0 0 0 0 0 0 0 0 0 0 0 0 0 0 0 0 0 0 0 0 0 0 0 0 0 0 0 0 0 0
0 0 0 0 0 0 0 0 0 0 0 0 0 0 0 0 0 0 0 0 0 0 0 0 0 0 0 0 0 0 0 0 0 0 0 0 0 0 0 0 0 0 0 0 0 0 0 0 0
0 0 0 0 0 0 0 0 0 0 0 0 0 0 0 0 0 0 0 0 0 0 0 0 0 0 0 0 0 0 0 0 0 0 0 0 0 0 0 0 0 0 0 0 0 0 0 0 0
0 0 0 0 0 0 0 0 0 0 0 0 0 0 0 0 0 0 0 0 0 0 0 0 0 0 0 0 0 0 0 0 0 0 0 0 0 0 0 0 0 0 0 0 0 0 0 0 0
0 0 0 0 0 0 0 0 0 0 0 0 0 0 0 0 0 0 0 0 0 0 0 0 0 0 0 0 0 0 0 0 0 0 0 0 0 0 0 0 0 0 0 0 0 0 0 0 0
0 0 0 0 0 0 0 0 0 0 0 0 0 0 0 0 0 0 0 0 0 0 0 0 0 0 0 0 0 0 0 0 0 0 0 0 0 0 0 0 0 0 0 0 0 0 0 0 0
0 0 0 0 0 0 0 0 0 0 0 0 0 0 0 0 0 0 0 0 0 0 0 0 0 0 0 0 0 0 0 0 0 0 0 0 0 0 0 0 0 0 0 0 0 0 0 0 0
0 0 0 0 0 0 0 0 0 0 0 0 0 0 0 0 0 0 0 0 0 0 0 0 0 0 0 0 0 0 0 0 0 0 0 0 0 0 0 0 0 0 0 0 0 0 0 0 0
0 0 0 0 0 0 0 0 0 0 0 0 0 0 0 0 0 0 0 0 0 0 0 0 0 0 0 0 0 0 0 0 0 0 0 0 0 0 0 0 0 0 0 0 0 0 0 0 0
0 0 0 0 0 0 0 0 0 0 0 0 0 0 0 0 0 0 0 0 0 0 0 0 0 -0 0 0 0 0 0 0 0 0 0 0 0 0 0 0 0 0 0 0 0 0 0 0 0
0 0 0 0 0 0 0 0 0 0 0 0 0 0 0 0 0 0 0 0 0 0 0 0 -0 -0 0 0 -0 0 0 0 0 0 0 0 0 0 0 0 0 0 0 0 0 0 0 0 0
0 0 0 0 0 0 0 0 0 0 0 0 0 0 0 0 0 0 0 0 0 0 0 0 0 0 0 -0 -0 -0 0 0 0 0 0 0 0 0 0 0 0 0 0 0 0 0 0 0 0
0 0 0 0 0 0 0 0 0 0 0 0 0 0 0 0 0 0 0 0 0 0 0 0 0 0 0 -0 0 0 0 0 0 0 0 0 0 0 0 0 0 0 0 0 0 0 0 0 0
Wind_Speed
2 3 3 4 7 7 4 2 1 2 3 2 3 5 5 4 2 1 2 1 0 1 2 2 4 5 6 6 7 8 8 8 8 8 8 8 8 8 8 9 9 9 9 9 9 10 10 10 10
1 2 4 5 6 5 3 2 2 2 3 3 4 4 5 3 2 1 1 1 1 1 1 2 4 5 6 6 7 7 8 8 8 8 8 8 8 8 8 9 9 10 10 10 10 10 11 10 10
2 3 5 5 5 3 2 1 2 3 3 2 3 4 3 2 1 1 1 1 1 1 1 1 4 5 5 6 6 7 8 7 7 8 8 8 7 7 8 9 9 9 9 9 10 10 10 10 10
3 5 6 7 6 1 2 1 2 3 3 5 3 4 2 2 0 1 1 2 2 2 2 2 4 5 5 6 7 7 7 7 7 8 8 8 8 7 7 8 9 9 9 9 10 10 10 10 10
4 5 7 5 4 2 1 0 2 3 3 3 3 3 2 4 2 3 2 2 2 1 2 2 3 4 4 5 6 6 6 7 7 8 8 8 8 8 8 8 8 8 9 9 10 10 10 10 11
5 6 6 4 2 2 2 1 3 4 3 3 3 2 1 2 2 2 2 2 2 2 2 3 3 4 4 4 5 5 6 7 7 8 8 8 8 8 8 8 8 8 8 9 9 10 10 10 10
5 5 4 3 2 2 1 1 3 3 3 2 3 3 1 1 0 2 3 2 2 3 3 3 3 4 4 4 4 5 5 6 7 7 8 8 8 8 8 8 8 8 8 9 9 10 10 10 10
4 6 4 2 2 1 0 1 2 3 2 2 3 4 2 2 2 3 3 3 3 3 3 2 3 3 3 3 4 5 6 6 7 8 8 8 9 9 9 8 8 8 8 9 9 10 10 10 10
4 6 3 2 3 1 1 2 2 2 4 2 2 2 2 4 5 4 3 3 2 2 2 2 2 2 2 2 4 5 6 7 7 6 8 8 5 5 5 7 8 8 9 9 10 10 11 11 10
5 4 2 3 4 3 2 2 2 3 3 2 3 3 4 5 5 4 2 1 1 1 1 1 1 1 2 2 3 3 3 4 4 3 4 4 4 4 5 8 9 9 9 10 11 11 10 8 5
4 4 1 1 2 3 2 2 2 5 1 3 4 4 4 4 3 3 2 2 2 1 0 0 0 1 1 1 2 2 2 2 3 3 3 3 3 3 4 3 4 5 7 5 7 7 5 4 4
4 2 2 1 2 3 2 2 2 2 2 3 5 5 5 4 3 3 2 2 1 1 1 0 1 2 2 2 2 2 2 2 2 2 3 3 2 3 2 2 3 3 2 3 3 3 4 5 5
4 2 3 3 4 3 4 3 2 1 1 5 6 6 5 4 2 1 1 1 1 1 1 1 2 2 2 2 1 2 2 2 1 2 2 3 2 2 2 2 3 3 2 3 3 3 5 5 5
2 3 3 3 3 2 4 2 2 1 3 6 6 4 3 4 3 2 2 2 1 2 2 2 2 2 2 2 2 2 2 1 2 2 2 2 2 2 2 3 3 3 3 3 3 4 4 4 4
4 5 5 3 2 1 4 3 1 1 5 5 4 3 3 2 2 3 3 2 2 2 2 2 2 2 2 2 2 2 1 2 2 1 2 2 2 2 2 2 2 2 3 3 4 4 4 4 4
4 5 3 4 2 1 4 1 3 2 5 4 3 3 2 2 2 2 2 2 2 3 3 2 2 3 3 2 2 2 2 2 2 1 2 2 3 3 3 2 2 2 3 3 3 3 4 4 4
4 2 1 4 2 2 3 2 3 2 5 4 3 3 2 1 1 2 2 2 3 3 3 3 3 3 3 2 2 2 2 2 2 2 2 2 3 3 3 2 2 2 3 3 3 3 3 3 3
2 1 0 2 2 2 1 3 3 0 3 4 3 3 2 3 4 2 2 2 3 3 3 3 3 3 3 3 3 2 3 2 2 2 2 2 2 3 3 2 2 3 3 3 3 4 3 3 3
4 3 1 3 2 1 1 3 4 1 1 3 3 3 4 5 3 1 2 3 3 3 3 3 3 2 2 2 2 2 1 1 2 2 2 2 2 2 2 2 2 2 3 3 3 3 4 2 2
4 3 1 2 0 1 1 4 3 1 3 4 5 5 5 3 1 2 3 3 3 3 3 3 3 3 2 2 1 1 1 1 1 1 2 2 2 2 2 2 2 2 3 3 3 3 2 1 1
2 5 4 3 1 2 1 5 3 3 1 1 2 3 4 5 5 4 4 4 3 3 4 4 3 2 2 2 2 2 2 2 2 2 2 2 1 2 2 2 2 2 2 2 2 2 3 1 0
3 4 4 3 2 2 1 3 6 3 3 2 2 2 3 3 4 5 5 5 5 4 3 3 3 2 2 2 3 3 2 1 1 0 0 1 1 1 1 2 2 2 2 2 1 2 2 2 1
4 2 3 2 2 1 1 1 7 2 3 5 4 3 3 4 5 6 6 6 5 4 4 3 3 2 2 2 3 2 2 1 0 1 1 1 2 1 1 1 2 2 1 2 1 1 1 1 2
4 6 5 5 4 1 2 2 6 3 5 5 4 4 3 3 4 4 4 4 4 4 3 3 3 2 2 2 2 2 2 2 1 1 0 1 1 1 1 1 1 1 1 2 2 2 1 1 1
4 6 3 4 3 4 2 2 7 5 4 5 4 4 3 3 4 4 5 5 5 5 4 4 3 2 2 2 2 2 2 3 2 2 1 1 0 1 1 0 1 1 1 1 1 2 1 1 1
3 7 7 4 4 4 2 4 7 4 3 2 2 2 2 2 3 5 6 6 6 5 5 4 4 3 2 2 2 2 2 2 1 2 2 2 1 2 1 1 1 1 1 1 1 1 1 1 1
4 3 5 6 2 1 4 5 7 1 2 1 1 2 2 2 3 4 5 5 5 6 5 5 4 3 3 3 2 1 1 2 1 1 1 1 1 1 1 1 1 1 1 1 1 1 1 1 1
4 7 5 5 3 3 4 4 4 4 3 1 0 1 2 1 2 3 4 4 4 5 4 4 4 4 3 2 2 2 2 2 1 1 1 1 1 1 1 1 1 1 0 1 1 1 0 1 0
3 3 4 4 4 5 3 7 5 5 5 4 4 3 3 3 3 3 3 3 3 3 3 4 3 3 2 2 2 1 1 1 1 1 1 1 1 1 1 1 1 1 0 1 1 1 1 1 0
4 5 6 4 3 4 3 8 4 3 3 4 3 3 2 2 2 3 4 3 3 3 3 3 3 3 3 3 2 2 2 1 1 1 1 1 1 1 1 1 1 0 0 0 1 1 1 1 1
Wind_Direction
46 73 80 59 55 54 49 15 28 50 56 38 50 70 83 72 69 99 286 346 50 342 337 4 45 68 74 74 73 72 74 75 71 71 76 82 88 87 88 84 80 79 75 73 78 88 95 98 99
74 83 58 59 74 73 24 355 60 71 135 134 70 66 69 63 67 91 318 330 73 26 18 19 61 76 77 75 76 77 76 78 77 75 76 79 85 86 84 85 81 78 75 72 76 82 88 92 93
78 57 73 65 76 110 118 8 105 84 88 89 69 54 67 53 60 186 250 156 77 48 33 35 74 78 79 78 76 81 77 75 78 77 77 79 82 84 85 86 83 81 80 77 78 80 84 87 88
70 45 54 67 74 65 144 154 127 107 62 48 80 61 43 5 116 168 125 110 87 53 30 48 76 79 81 80 75 76 77 74 75 75 74 75 75 78 81 86 87 83 80 79 80 80 80 82 85
60 68 63 63 55 23 30 95 90 84 67 47 73 82 23 354 66 108 112 105 96 54 31 46 77 82 84 86 79 72 71 70 74 72 69 70 73 73 73 82 86 85 82 79 77 78 78 78 79
56 65 79 82 58 16 7 53 89 82 88 81 83 87 5 359 70 101 103 95 88 71 46 35 55 75 82 89 84 77 71 75 74 70 67 65 68 70 69 72 79 84 85 82 77 76 77 78 79
91 83 95 110 89 49 69 73 98 104 94 110 121 97 352 341 79 105 91 82 66 54 48 32 28 38 53 75 75 70 67 68 68 67 67 62 61 63 62 64 70 77 79 78 76 76 76 76 77
110 96 82 86 105 76 116 94 97 109 110 109 110 129 196 231 125 92 78 65 54 41 37 30 26 35 33 34 54 58 60 60 62 63 62 57 53 56 56 55 60 65 67 69 68 70 71 73 76
79 79 107 165 151 154 126 98 69 78 96 76 71 148 176 123 103 89 68 43 38 35 19 19 22 21 27 29 44 46 51 52 52 51 54 49 37 37 45 49 57 61 60 60 61 67 67 67 69
75 100 169 188 165 149 126 117 126 87 76 70 56 57 89 105 114 118 117 114 79 339 341 13 3 9 24 38 43 31 41 41 48 46 44 40 39 38 46 44 51 56 56 55 57 62 66 62 55
87 125 143 104 137 128 118 103 105 120 140 191 163 142 119 118 127 139 156 168 193 219 279 201 232 58 61 50 50 40 38 41 45 45 48 51 45 39 40 39 38 42 49 48 49 53 56 60 58
87 76 105 102 113 111 116 113 93 132 212 167 149 141 136 135 150 166 174 176 154 138 188 185 98 71 57 63 59 49 45 41 40 36 51 63 59 49 43 45 36 41 44 52 50 56 64 64 59
74 70 66 87 82 95 89 84 110 49 70 102 113 120 140 153 166 180 162 145 136 144 160 137 103 89 72 67 56 62 52 48 47 44 47 71 78 65 55 49 46 43 45 55 59 64 68 67 61
93 73 52 46 67 72 91 58 78 323 109 111 120 141 166 179 178 150 140 143 158 158 151 129 118 117 102 84 75 67 61 52 52 53 61 80 86 79 71 60 51 46 50 57 68 73 73 69 64
79 60 26 14 40 47 89 22 304 192 124 127 143 161 177 202 180 180 185 169 164 153 142 136 137 108 97 87 84 84 77 69 61 55 71 87 96 94 86 75 61 51 61 71 74 68 70 71 63
54 51 22 328 20 51 101 278 290 126 136 154 174 185 198 227 210 205 185 156 139 130 129 136 132 108 100 93 82 75 74 69 53 51 67 79 90 95 88 82 71 70 70 74 80 74 71 64 60
35 60 355 323 354 71 106 245 295 130 149 173 191 201 202 231 244 221 187 160 143 144 134 126 107 109 106 94 78 69 64 57 48 52 66 75 83 88 89 84 77 80 77 74 88 74 82 80 70
189 157 231 286 311 81 103 269 303 157 169 189 195 209 205 213 233 211 178 149 138 136 125 118 103 102 96 83 72 56 50 39 36 43 57 72 77 87 91 84 78 84 86 76 81 84 72 79 78
148 146 194 258 256 116 217 274 288 267 173 195 201 209 219 228 237 169 161 139 124 118 119 125 123 121 107 88 88 76 50 24 23 28 50 63 77 90 97 94 84 85 93 100 103 98 85 72 76
139 143 218 288 347 133 268 291 285 246 222 214 203 206 216 217 195 178 163 152 151 147 143 140 143 144 143 125 119 122 113 72 33 16 45 55 72 88 106 109 108 106 106 101 106 113 108 91 65
179 183 197 208 4 35 16 326 312 290 281 246 207 206 207 202 194 189 179 176 163 161 167 165 160 153 143 120 98 79 61 42 26 19 21 20 48 74 90 106 111 116 123 133 136 137 136 146 53
220 214 180 167 109 299 63 300 293 286 311 289 256 226 218 213 194 189 186 181 182 182 171 158 155 147 140 130 125 122 119 131 233 261 351 14 39 63 93 116 120 125 126 135 153 141 144 140 149
199 130 118 119 129 1 353 220 289 325 289 270 250 231 225 210 196 193 191 187 181 168 163 160 148 140 135 139 140 127 116 148 104 60 50 34 28 33 65 117 123 130 132 143 149 142 151 154 164
125 79 59 52 68 312 250 184 281 254 238 258 244 230 222 208 195 191 182 166 158 151 150 150 146 152 157 148 143 149 152 149 122 88 73 17 10 6 25 117 136 157 161 169 181 164 159 165 165
93 93 38 359 4 260 265 199 253 259 245 233 230 223 211 189 182 173 165 165 164 161 162 160 158 169 174 159 163 171 169 167 176 185 185 191 244 268 266 194 174 188 201 192 177 159 169 171 165
166 141 158 196 225 276 305 237 256 274 281 259 219 186 166 172 182 180 178 174 172 169 166 165 169 176 173 173 189 180 168 170 193 198 191 198 214 232 229 208 200 214 208 191 173 169 190 165 175
143 172 162 134 161 267 282 289 302 323 359 14 69 110 157 181 182 182 175 172 172 170 174 174 173 175 180 184 178 177 175 178 194 207 195 207 226 227 197 182 191 211 196 180 158 160 201 153 167
143 145 110 123 158 251 291 278 260 275 275 289 237 206 216 187 175 175 176 176 176 172 170 162 165 177 182 180 185 184 195 197 188 166 193 212 223 203 151 144 152 152 135 131 129 142 186 143 176
96 103 113 125 153 163 249 269 232 225 225 218 225 222 205 189 183 181 175 166 158 150 156 158 164 163 165 175 180 179 196 179 164 181 218 207 192 173 167 170 152 150 157 135 130 178 160 145 275
164 165 146 155 208 179 188 264 278 240 225 208 213 220 207 183 173 168 155 147 147 154 164 170 173 176 185 177 168 180 177 156 168 210 228 186 171 174 174 155 137 141 158 161 169 214 211 184 221